Погода в Усаде

Россия / Владимирская область     55°25′03″N   42°00′21″E
темп.,
°C
ветер,
м/с
пор.,
м/с
влажн.,
%
обл.,
%
осадки,
мм/ч
давл.,
гПа
погр.,
м
18 мая, вт
вт1800:00+17юв488299 0.0 1014105
03:00+15юв37786 0.0 1013105
06:00+17вюв2673100 0.0 1013116
09:00+24юв4105486 0.0 1013474
12:00+28юв58415 0.0 10131141
15:00+28юв59405 0.0 10121200
18:00+24вюв612545 0.0 1011339
21:00+20вюв413705 0.0 1011249
19 мая, ср
ср1900:00+17вюв412730 0.0 1011214
03:00+17вюв513670 0.0 1011264
06:00+17вюв413695 0.0 1011328
09:00+23юв511545 0.0 1011720
12:00+27юв714459 0.0 10101863
15:00+27юв61148100 0.0 10101571
18:00+25вюв713605 0.0 1009574
21:00+22вюв6146992 0.0 1009485
20 мая, чт
чт2000:00+20вюв6156699 0.0 1008505
03:00+19юв513621 0.0 1008474
06:00+19юв512744 0.0 1008596
09:00+20ю6873100 0.0 10091179
12:00+21ю796099 0.1 10091533
15:00+21ююв6960100 0.1 10091668
18:00+20ююв486560 0.0 1008664
21:00+15ю3682100 0.0 1009106
21 мая, пт
пт2100:00+13ююз3994100 0.0 1008198
03:00+12ю369786 0.0 1008130
06:00+13ю3690100 0.0 1009239
09:00+14ююз4887100 0.5 1009351
12:00+14зюз5108990 1.3 1011674
15:00+16зюз696827 1.4 10131200
18:00+15з597198 0.3 10151251
21:00+11зюз338396 0.3 101743
22 мая, сб
сб2200:00+11юз2283100 0.0 101823
03:00+11ююв2281100 0.0 101818
06:00+10юз2394100 2.6 101974
09:00+11св4698100 11.6 1019323
12:00+11св5896100 5.1 1018474
15:00+11всв4995100 6.3 1018422
18:00+12ссв469480 0.0 1018391
21:00+10ссв489856 0.0 1018291